EN

Hourly Weather Brzoskwinia

Today, 16 April, Friday

Time Temperature Precipitation Wind Pressure Humidity
00:00 -1°C° 0.1 mm 3 mps 737 mmHg 98%
01:00 -1°C° 0.1 mm 3 mps 737 mmHg 98%
02:00 -1°C° 0.1 mm 3 mps 737 mmHg 98%
03:00 -1°C° 0.1 mm 3 mps 737 mmHg 98%
04:00 -2°C° 0.1 mm 4 mps 737 mmHg 98%
05:00 -2°C° 0.2 mm 4 mps 737 mmHg 98%
06:00 -2°C° 0.2 mm 4 mps 737 mmHg 98%
07:00 -1°C° 0.2 mm 4 mps 737 mmHg 98%
08:00 -1°C° 0.2 mm 4 mps 737 mmHg 98%
09:00 -1°C° 0.2 mm 4 mps 737 mmHg 98%
10:00 -1°C° 0.2 mm 4 mps 737 mmHg 98%
11:00 -1°C° 0.1 mm 5 mps 737 mmHg 98%
12:00 -1°C° 0.1 mm 5 mps 737 mmHg 98%
13:00 -1°C° 0.1 mm 5 mps 737 mmHg 98%
14:00 -1°C° 0.4 mm 5 mps 737 mmHg 98%
15:00 -1°C° 0.4 mm 5 mps 737 mmHg 98%
16:00 -1°C° 0.4 mm 4 mps 737 mmHg 98%
17:00 -1°C° 0.4 mm 4 mps 737 mmHg 98%
18:00 -1°C° 0.4 mm 4 mps 738 mmHg 98%
19:00 -1°C° 0.4 mm 4 mps 738 mmHg 98%
20:00 -1°C° 0.6 mm 4 mps 738 mmHg 98%
21:00 -1°C° 0.6 mm 4 mps 738 mmHg 99%
22:00 -1°C° 0.6 mm 4 mps 737 mmHg 99%
23:00 0°C° 0.7 mm 3 mps 737 mmHg 99%

Tomorrow, 17 April, Saturday

Time Temperature Precipitation Wind Pressure Humidity
00:00 0°C° 0.7 mm 3 mps 737 mmHg 99%
01:00 0°C° 0.7 mm 3 mps 737 mmHg 99%
02:00 +1°C° 0.2 mm 3 mps 737 mmHg 99%
03:00 +2°C° 0.2 mm 2 mps 737 mmHg 99%
04:00 +2°C° 0.2 mm 2 mps 737 mmHg 99%
05:00 +2°C° 0.1 mm 2 mps 737 mmHg 99%
06:00 +2°C° 0.1 mm 2 mps 737 mmHg 99%
07:00 +2°C° 0.1 mm 2 mps 737 mmHg 99%
08:00 +2°C° 0 mm 2 mps 737 mmHg 99%
09:00 +2°C° 0 mm 2 mps 738 mmHg 99%
10:00 +2°C° 0 mm 2 mps 738 mmHg 99%
11:00 +3°C° 0 mm 2 mps 738 mmHg 99%
12:00 +3°C° 0 mm 2 mps 738 mmHg 99%
13:00 +3°C° 0 mm 2 mps 738 mmHg 99%
14:00 +3°C° 0 mm 2 mps 738 mmHg 99%
15:00 +4°C° 0 mm 1 mps 738 mmHg 99%
16:00 +4°C° 0 mm 1 mps 738 mmHg 99%
17:00 +4°C° 0 mm 1 mps 738 mmHg 99%
18:00 +4°C° 0 mm 1 mps 738 mmHg 99%
19:00 +4°C° 0 mm 1 mps 738 mmHg 99%
20:00 +4°C° 0 mm 1 mps 738 mmHg 99%
21:00 +4°C° 0 mm 1 mps 738 mmHg 99%
22:00 +3°C° 0 mm 0 mps 738 mmHg 99%
23:00 +3°C° 0 mm 0 mps 738 mmHg 99%

Day after tomorrow, 18 April, Sunday

Time Temperature Precipitation Wind Pressure Humidity
00:00 +3°C° 0 mm 0 mps 738 mmHg 99%
01:00 +3°C° 0 mm 0 mps 738 mmHg 99%
02:00 +3°C° 0 mm 0 mps 738 mmHg 99%
03:00 +3°C° 0 mm 0 mps 738 mmHg 99%
04:00 +3°C° 0 mm 0 mps 738 mmHg 99%
05:00 +4°C° 0 mm 1 mps 738 mmHg 98%
06:00 +4°C° 0 mm 1 mps 737 mmHg 98%
07:00 +5°C° 0 mm 1 mps 737 mmHg 97%
08:00 +5°C° 0 mm 2 mps 737 mmHg 91%
09:00 +6°C° 0 mm 2 mps 737 mmHg 84%
10:00 +7°C° 0 mm 3 mps 737 mmHg 78%
11:00 +8°C° 0 mm 2 mps 737 mmHg 77%
12:00 +8°C° 0 mm 2 mps 737 mmHg 75%
13:00 +9°C° 0 mm 2 mps 737 mmHg 74%
14:00 +9°C° 0 mm 2 mps 737 mmHg 77%
15:00 +9°C° 0 mm 2 mps 737 mmHg 79%
16:00 +9°C° 0 mm 2 mps 736 mmHg 81%
17:00 +8°C° 0.1 mm 2 mps 736 mmHg 85%
18:00 +8°C° 0.1 mm 1 mps 736 mmHg 89%
19:00 +8°C° 0.1 mm 1 mps 736 mmHg 93%
20:00 +8°C° 0.2 mm 1 mps 736 mmHg 94%
21:00 +8°C° 0.2 mm 1 mps 736 mmHg 95%
22:00 +8°C° 0.2 mm 1 mps 736 mmHg 97%
23:00 +8°C° 0.1 mm 1 mps 736 mmHg 97%

19 April, Monday

Time Temperature Precipitation Wind Pressure Humidity
00:00 +7°C° 0.1 mm 1 mps 736 mmHg 97%
01:00 +7°C° 0.1 mm 1 mps 735 mmHg 97%
02:00 +7°C° 0.1 mm 1 mps 735 mmHg 97%
03:00 +6°C° 0.1 mm 2 mps 735 mmHg 98%
04:00 +6°C° 0.1 mm 2 mps 735 mmHg 98%
05:00 +6°C° 0.1 mm 2 mps 735 mmHg 97%
06:00 +5°C° 0.1 mm 3 mps 735 mmHg 97%
07:00 +7°C° 0.1 mm 3 mps 735 mmHg 97%
08:00 +7°C° 0.1 mm 3 mps 735 mmHg 92%
09:00 +7°C° 0.1 mm 4 mps 735 mmHg 87%
10:00 +7°C° 0.1 mm 4 mps 735 mmHg 83%
11:00 +8°C° 0.1 mm 4 mps 735 mmHg 78%
12:00 +10°C° 0.1 mm 3 mps 735 mmHg 74%
13:00 +10°C° 0.1 mm 3 mps 735 mmHg 69%
14:00 +10°C° 0.1 mm 3 mps 734 mmHg 71%
15:00 +9°C° 0.1 mm 3 mps 734 mmHg 72%
16:00 +9°C° 0.1 mm 3 mps 734 mmHg 73%
17:00 +8°C° 0 mm 3 mps 734 mmHg 75%
18:00 +8°C° 0 mm 2 mps 734 mmHg 77%
19:00 +8°C° 0 mm 1 mps 734 mmHg 80%
20:00 +8°C° 0 mm 1 mps 734 mmHg 82%
21:00 +7°C° 0 mm 1 mps 734 mmHg 84%
22:00 +7°C° 0 mm 1 mps 734 mmHg 86%
23:00 +7°C° 0 mm 1 mps 733 mmHg 88%

20 April, Tuesday

Time Temperature Precipitation Wind Pressure Humidity
00:00 +6°C° 0 mm 1 mps 733 mmHg 89%
01:00 +6°C° 0 mm 1 mps 733 mmHg 90%
02:00 +5°C° 0 mm 2 mps 733 mmHg 92%
03:00 +5°C° 0 mm 2 mps 733 mmHg 93%
04:00 +4°C° 0 mm 2 mps 733 mmHg 94%
05:00 +5°C° 0 mm 2 mps 733 mmHg 91%
06:00 +6°C° 0 mm 2 mps 733 mmHg 88%
07:00 +6°C° 0 mm 2 mps 733 mmHg 84%
08:00 +7°C° 0.2 mm 3 mps 733 mmHg 81%
09:00 +8°C° 0.2 mm 3 mps 732 mmHg 78%
10:00 +8°C° 0.2 mm 3 mps 732 mmHg 75%
11:00 +8°C° 0.3 mm 4 mps 732 mmHg 73%
12:00 +8°C° 0.3 mm 4 mps 732 mmHg 71%
13:00 +10°C° 0.3 mm 4 mps 731 mmHg 69%
14:00 +10°C° 0.3 mm 4 mps 731 mmHg 69%
15:00 +10°C° 0.3 mm 4 mps 731 mmHg 70%
16:00 +10°C° 0.3 mm 3 mps 731 mmHg 71%
17:00 +9°C° 0.2 mm 3 mps 731 mmHg 74%
18:00 +8°C° 0.2 mm 2 mps 731 mmHg 78%
19:00 +7°C° 0.2 mm 2 mps 731 mmHg 82%
20:00 +6°C° 0.1 mm 2 mps 731 mmHg 84%
21:00 +6°C° 0.1 mm 2 mps 731 mmHg 86%
22:00 +5°C° 0.1 mm 2 mps 731 mmHg 88%
23:00 +5°C° 0 mm 2 mps 731 mmHg 89%

21 April, Wednesday

Time Temperature Precipitation Wind Pressure Humidity
00:00 +5°C° 0 mm 2 mps 731 mmHg 89%
01:00 +4°C° 0 mm 3 mps 731 mmHg 90%
02:00 +3°C° 0 mm 3 mps 731 mmHg 90%
03:00 +3°C° 0 mm 3 mps 731 mmHg 91%
04:00 +3°C° 0 mm 3 mps 731 mmHg 92%
05:00 +4°C° 0 mm 3 mps 731 mmHg 88%
06:00 +5°C° 0 mm 4 mps 731 mmHg 85%
07:00 +6°C° 0 mm 4 mps 731 mmHg 82%
08:00 +6°C° 0.1 mm 4 mps 731 mmHg 79%
09:00 +7°C° 0.1 mm 5 mps 732 mmHg 77%
10:00 +8°C° 0.1 mm 5 mps 732 mmHg 74%
11:00 +9°C° 0.1 mm 5 mps 732 mmHg 68%
12:00 +9°C° 0.1 mm 5 mps 732 mmHg 62%
13:00 +11°C° 0.1 mm 4 mps 732 mmHg 56%
14:00 +11°C° 0 mm 4 mps 732 mmHg 55%
15:00 +11°C° 0 mm 4 mps 732 mmHg 55%
16:00 +11°C° 0 mm 4 mps 733 mmHg 54%
17:00 +10°C° 0 mm 3 mps 733 mmHg 59%
18:00 +9°C° 0 mm 2 mps 733 mmHg 65%
19:00 +8°C° 0 mm 1 mps 733 mmHg 70%
20:00 +7°C° 0 mm 1 mps 734 mmHg 73%
21:00 +7°C° 0 mm 1 mps 734 mmHg 76%
22:00 +6°C° 0 mm 1 mps 734 mmHg 79%
23:00 +6°C° 0 mm 1 mps 734 mmHg 80%
Show more

We Need Your Consent

Meteoprog and our Service Providers may store and access personal data such as cookies, device identifiers or other similar technologies on your device and process such data to personalise content and ads, as well as provide social media features and to analyse the traffic.

  • Store and/or access information on your device

    Cookies, device identifiers or other information can be stored or accessed on your device for the purposes indicated above.

  • Personalised ads and content, ad and content measurement, audience insights, and products development

    Ads and content can be personalised based on a profile. More data can be added to better personalise ads and content. Ad and content performance can be measured. Insights about the audience who saw the ads and content can be derived. Such data can be used to develop or improve user’s experience, systems and software.

By clicking ‘I Agree’ you will allow the use of indicated cookies, device identifiers, web beacons or other similar technologies. Your settings can be changed in the browser on your device.

For certain purposes, legitimate interests may be relied on, rather than consent. You can read more about this in our Privacy and Cookie Policy.